owner,sensor,date,latitude,longitude,air_pressure(mBar),qcFlag 
TABS,ioos:station:wmo:42046:1,2011-09-01T00:00:00Z,27.8903,-94.0367,1012.45,11111222 
TABS,ioos:station:wmo:42046:1,2011-09-01T00:30:00Z,27.8903,-94.0367,1012.46,11111222 
TABS,ioos:station:wmo:42046:1,2011-09-01T01:00:00Z,27.8903,-94.0367,1012.47,11111222 
TABS,ioos:station:wmo:42046:1,2011-09-01T01:30:00Z,27.8903,-94.0367,1012.75,11111222 
TABS,ioos:station:wmo:42046:1,2011-09-01T02:00:00Z,27.8903,-94.0367,1013.18,11111222 
TABS,ioos:station:wmo:42046:1,2011-09-01T02:30:00Z,27.8903,-94.0367,1013.53,11111222 
TABS,ioos:station:wmo:42046:1,2011-09-01T03:00:00Z,27.8903,-94.0367,1013.55,11111222 
TABS,ioos:station:wmo:42046:1,2011-09-01T03:30:00Z,27.8903,-94.0367,1013.57,11111222 
TABS,ioos:station:wmo:42046:1,2011-09-01T04:00:00Z,27.8903,-94.0367,1013.56,11111222 
TABS,ioos:station:wmo:42046:1,2011-09-01T04:30:00Z,27.8903,-94.0367,1013.55,11111222 
TABS,ioos:station:wmo:42046:1,2011-09-01T05:00:00Z,27.8903,-94.0367,1013.32,11111222 
TABS,ioos:station:wmo:42046:1,2011-09-01T05:30:00Z,27.8903,-94.0367,1013.32,11111222 
TABS,ioos:station:wmo:42046:1,2011-09-01T06:00:00Z,27.8903,-94.0367,1012.92,11111222 
TABS,ioos:station:wmo:42046:1,2011-09-01T06:30:00Z,27.8903,-94.0367,1012.73,11111222 
TABS,ioos:station:wmo:42046:1,2011-09-01T07:00:00Z,27.8903,-94.0367,1012.69,11111222 
TABS,ioos:station:wmo:42046:1,2011-09-01T07:30:00Z,27.8903,-94.0367,1012.51,11111222 
TABS,ioos:station:wmo:42046:1,2011-09-01T08:00:00Z,27.8903,-94.0367,1012.4,11111222 
TABS,ioos:station:wmo:42046:1,2011-09-01T08:30:00Z,27.8903,-94.0367,1012.23,11111222 
TABS,ioos:station:wmo:42046:1,2011-09-01T09:00:00Z,27.8903,-94.0367,1011.92,11111222 
TABS,ioos:station:wmo:42046:1,2011-09-01T09:30:00Z,27.8903,-94.0367,1012.17,11111222 
TABS,ioos:station:wmo:42046:1,2011-09-01T10:00:00Z,27.8903,-94.0367,1012.34,11111222 
TABS,ioos:station:wmo:42046:1,2011-09-01T10:30:00Z,27.8903,-94.0367,1012.66,11111222 
TABS,ioos:station:wmo:42046:1,2011-09-01T11:00:00Z,27.8903,-94.0367,1012.61,11111222 
TABS,ioos:station:wmo:42046:1,2011-09-01T11:30:00Z,27.8903,-94.0367,1012.73,11111222 
TABS,ioos:station:wmo:42046:1,2011-09-01T12:00:00Z,27.8903,-94.0367,1012.87,11111222 
TABS,ioos:station:wmo:42046:1,2011-09-01T12:30:00Z,27.8903,-94.0367,1013.11,11111222 
TABS,ioos:station:wmo:42046:1,2011-09-01T13:00:00Z,27.8903,-94.0367,1013.44,11111222 
TABS,ioos:station:wmo:42046:1,2011-09-01T13:30:00Z,27.8903,-94.0367,1013.62,11111222 
TABS,ioos:station:wmo:42046:1,2011-09-01T14:00:00Z,27.8903,-94.0367,1013.61,11111222 
TABS,ioos:station:wmo:42046:1,2011-09-01T14:30:00Z,27.8903,-94.0367,1013.87,11111222 
TABS,ioos:station:wmo:42046:1,2011-09-01T15:00:00Z,27.8903,-94.0367,1013.77,11111222 
TABS,ioos:station:wmo:42046:1,2011-09-01T15:30:00Z,27.8903,-94.0367,1014.14,11111222 
TABS,ioos:station:wmo:42046:1,2011-09-01T16:00:00Z,27.8903,-94.0367,1014.06,11111222 
TABS,ioos:station:wmo:42046:1,2011-09-01T16:30:00Z,27.8903,-94.0367,1013.43,11111222 
TABS,ioos:station:wmo:42046:1,2011-09-01T17:00:00Z,27.8903,-94.0367,1013.08,11111222 
TABS,ioos:station:wmo:42046:1,2011-09-01T17:30:00Z,27.8903,-94.0367,1013.08,11111222 
TABS,ioos:station:wmo:42046:1,2011-09-01T18:00:00Z,27.8903,-94.0367,1012.64,11111222 
TABS,ioos:station:wmo:42046:1,2011-09-01T18:30:00Z,27.8903,-94.0367,1012.15,11111222 
TABS,ioos:station:wmo:42046:1,2011-09-01T19:00:00Z,27.8903,-94.0367,1011.81,11111222 
TABS,ioos:station:wmo:42046:1,2011-09-01T19:30:00Z,27.8903,-94.0367,1011.66,11111222 
TABS,ioos:station:wmo:42046:1,2011-09-01T20:00:00Z,27.8903,-94.0367,1011.55,11111222 
TABS,ioos:station:wmo:42046:1,2011-09-01T20:30:00Z,27.8903,-94.0367,1011.33,11111222 
TABS,ioos:station:wmo:42046:1,2011-09-01T21:00:00Z,27.8903,-94.0367,1010.76,11111222 
TABS,ioos:station:wmo:42046:1,2011-09-01T21:30:00Z,27.8903,-94.0367,1010.45,11111222 
TABS,ioos:station:wmo:42046:1,2011-09-01T22:00:00Z,27.8903,-94.0367,1010.18,11111222 
TABS,ioos:station:wmo:42046:1,2011-09-01T22:30:00Z,27.8903,-94.0367,1009.93,11111222 
TABS,ioos:station:wmo:42046:1,2011-09-01T23:00:00Z,27.8903,-94.0367,1009.66,11111222 
TABS,ioos:station:wmo:42046:1,2011-09-01T23:30:00Z,27.8903,-94.0367,1009.79,11111222 
TABS,ioos:station:wmo:42046:1,2011-09-02T00:00:00Z,27.8903,-94.0367,1009.43,11111222 
TABS,ioos:station:wmo:42046:1,2011-09-02T00:30:00Z,27.8903,-94.0367,1009.46,11111222 
TABS,ioos:station:wmo:42046:1,2011-09-02T01:00:00Z,27.8903,-94.0367,1009.58,11111222 
TABS,ioos:station:wmo:42046:1,2011-09-02T01:30:00Z,27.8903,-94.0367,1009.54,11111222 
TABS,ioos:station:wmo:42046:1,2011-09-02T02:00:00Z,27.8903,-94.0367,1009.87,11111222 
TABS,ioos:station:wmo:42046:1,2011-09-02T02:30:00Z,27.8903,-94.0367,1009.77,11111222 
TABS,ioos:station:wmo:42046:1,2011-09-02T03:00:00Z,27.8903,-94.0367,1009.73,11111222 
TABS,ioos:station:wmo:42046:1,2011-09-02T03:30:00Z,27.8903,-94.0367,1009.55,11111222 
TABS,ioos:station:wmo:42046:1,2011-09-02T04:00:00Z,27.8903,-94.0367,1009.8,11111222 
TABS,ioos:station:wmo:42046:1,2011-09-02T04:30:00Z,27.8903,-94.0367,1009.4,11111222 
TABS,ioos:station:wmo:42046:1,2011-09-02T05:00:00Z,27.8903,-94.0367,1009.4,11111222 
TABS,ioos:station:wmo:42046:1,2011-09-02T05:30:00Z,27.8903,-94.0367,1009.03,11111222 
TABS,ioos:station:wmo:42046:1,2011-09-02T06:00:00Z,27.8903,-94.0367,1009.0,11111222 
TABS,ioos:station:wmo:42046:1,2011-09-02T06:30:00Z,27.8903,-94.0367,1009.13,11111222 
TABS,ioos:station:wmo:42046:1,2011-09-02T07:00:00Z,27.8903,-94.0367,1008.41,11111222 
TABS,ioos:station:wmo:42046:1,2011-09-02T07:30:00Z,27.8903,-94.0367,1008.28,11111222 
TABS,ioos:station:wmo:42046:1,2011-09-02T08:00:00Z,27.8903,-94.0367,1008.18,11111222 
TABS,ioos:station:wmo:42046:1,2011-09-02T08:30:00Z,27.8903,-94.0367,1008.06,11111222 
TABS,ioos:station:wmo:42046:1,2011-09-02T09:00:00Z,27.8903,-94.0367,1007.94,11111222 
TABS,ioos:station:wmo:42046:1,2011-09-02T09:30:00Z,27.8903,-94.0367,1007.73,11111222 
TABS,ioos:station:wmo:42046:1,2011-09-02T10:00:00Z,27.8903,-94.0367,1007.57,11111222 
TABS,ioos:station:wmo:42046:1,2011-09-02T10:30:00Z,27.8903,-94.0367,1007.58,11111222 
TABS,ioos:station:wmo:42046:1,2011-09-02T11:00:00Z,27.8903,-94.0367,1007.47,11111222 
TABS,ioos:station:wmo:42046:1,2011-09-02T11:30:00Z,27.8903,-94.0367,1007.56,11111222 
TABS,ioos:station:wmo:42046:1,2011-09-02T12:00:00Z,27.8903,-94.0367,1007.12,11111222 
TABS,ioos:station:wmo:42046:1,2011-09-02T12:30:00Z,27.8903,-94.0367,1007.74,11111222 
TABS,ioos:station:wmo:42046:1,2011-09-02T13:00:00Z,27.8903,-94.0367,1007.64,11111222 
TABS,ioos:station:wmo:42046:1,2011-09-02T13:30:00Z,27.8903,-94.0367,1007.76,11111222 
TABS,ioos:station:wmo:42046:1,2011-09-02T14:00:00Z,27.8903,-94.0367,1007.56,11111222 
TABS,ioos:station:wmo:42046:1,2011-09-02T14:30:00Z,27.8903,-94.0367,1007.74,11111222 
TABS,ioos:station:wmo:42046:1,2011-09-02T15:00:00Z,27.8903,-94.0367,1007.33,11111222 
TABS,ioos:station:wmo:42046:1,2011-09-02T15:30:00Z,27.8903,-94.0367,1007.63,11111222 
TABS,ioos:station:wmo:42046:1,2011-09-02T16:00:00Z,27.8903,-94.0367,1007.87,11111222 
TABS,ioos:station:wmo:42046:1,2011-09-02T16:30:00Z,27.8903,-94.0367,1007.6,11111222 
TABS,ioos:station:wmo:42046:1,2011-09-02T17:00:00Z,27.8903,-94.0367,1007.36,11111222 
TABS,ioos:station:wmo:42046:1,2011-09-02T17:30:00Z,27.8903,-94.0367,1006.92,11111222 
TABS,ioos:station:wmo:42046:1,2011-09-02T18:00:00Z,27.8903,-94.0367,1007.01,11111222 
TABS,ioos:station:wmo:42046:1,2011-09-02T18:30:00Z,27.8903,-94.0367,1006.62,11111222 
TABS,ioos:station:wmo:42046:1,2011-09-02T19:00:00Z,27.8903,-94.0367,1006.15,11111222 
TABS,ioos:station:wmo:42046:1,2011-09-02T19:30:00Z,27.8903,-94.0367,1005.71,11111222 
TABS,ioos:station:wmo:42046:1,2011-09-02T20:00:00Z,27.8903,-94.0367,1005.48,11111222 
TABS,ioos:station:wmo:42046:1,2011-09-02T20:30:00Z,27.8903,-94.0367,1005.41,11111222 
TABS,ioos:station:wmo:42046:1,2011-09-02T21:00:00Z,27.8903,-94.0367,1005.19,11111222 
TABS,ioos:station:wmo:42046:1,2011-09-02T21:30:00Z,27.8903,-94.0367,1005.21,11111222 
TABS,ioos:station:wmo:42046:1,2011-09-02T22:00:00Z,27.8903,-94.0367,1004.58,11111222 
TABS,ioos:station:wmo:42046:1,2011-09-02T22:30:00Z,27.8903,-94.0367,1004.76,11111222 
TABS,ioos:station:wmo:42046:1,2011-09-02T23:00:00Z,27.8903,-94.0367,1004.65,11111222 
TABS,ioos:station:wmo:42046:1,2011-09-02T23:30:00Z,27.8903,-94.0367,1004.49,11111222 
TABS,ioos:station:wmo:42046:1,2011-09-03T00:00:00Z,27.8903,-94.0367,1004.75,11111222 
TABS,ioos:station:wmo:42046:1,2011-09-03T00:30:00Z,27.8903,-94.0367,1004.48,11111222 
TABS,ioos:station:wmo:42046:1,2011-09-03T01:00:00Z,27.8903,-94.0367,1004.7,11111222 
TABS,ioos:station:wmo:42046:1,2011-09-03T01:30:00Z,27.8903,-94.0367,1004.62,11111222 
TABS,ioos:station:wmo:42046:1,2011-09-03T02:00:00Z,27.8903,-94.0367,1004.71,11111222 
TABS,ioos:station:wmo:42046:1,2011-09-03T02:30:00Z,27.8903,-94.0367,1004.77,11111222 
TABS,ioos:station:wmo:42046:1,2011-09-03T03:00:00Z,27.8903,-94.0367,1005.22,11111222 
TABS,ioos:station:wmo:42046:1,2011-09-03T03:30:00Z,27.8903,-94.0367,1004.78,11111222 
TABS,ioos:station:wmo:42046:1,2011-09-03T04:00:00Z,27.8903,-94.0367,1005.14,11111222 
TABS,ioos:station:wmo:42046:1,2011-09-03T04:30:00Z,27.8903,-94.0367,1005.03,11111222 
TABS,ioos:station:wmo:42046:1,2011-09-03T05:00:00Z,27.8903,-94.0367,1004.61,11111222 
TABS,ioos:station:wmo:42046:1,2011-09-03T05:30:00Z,27.8903,-94.0367,1003.94,11111222 
TABS,ioos:station:wmo:42046:1,2011-09-03T06:00:00Z,27.8903,-94.0367,1003.8,11111222 
TABS,ioos:station:wmo:42046:1,2011-09-03T06:30:00Z,27.8903,-94.0367,1003.19,11111222 
TABS,ioos:station:wmo:42046:1,2011-09-03T07:00:00Z,27.8903,-94.0367,1003.36,11111222 
TABS,ioos:station:wmo:42046:1,2011-09-03T07:30:00Z,27.8903,-94.0367,1002.97,11111222 
TABS,ioos:station:wmo:42046:1,2011-09-03T08:00:00Z,27.8903,-94.0367,1002.3,11111222 
TABS,ioos:station:wmo:42046:1,2011-09-03T08:30:00Z,27.8903,-94.0367,1001.76,11111222 
TABS,ioos:station:wmo:42046:1,2011-09-03T09:00:00Z,27.8903,-94.0367,1001.72,11111222 
TABS,ioos:station:wmo:42046:1,2011-09-03T09:30:00Z,27.8903,-94.0367,1001.95,11111222 
TABS,ioos:station:wmo:42046:1,2011-09-03T10:00:00Z,27.8903,-94.0367,1001.8,11111222 
TABS,ioos:station:wmo:42046:1,2011-09-03T10:30:00Z,27.8903,-94.0367,1001.9,11111222 
TABS,ioos:station:wmo:42046:1,2011-09-03T11:00:00Z,27.8903,-94.0367,1001.71,11111222 
TABS,ioos:station:wmo:42046:1,2011-09-03T11:30:00Z,27.8903,-94.0367,1001.83,11111222 
TABS,ioos:station:wmo:42046:1,2011-09-03T12:00:00Z,27.8903,-94.0367,1001.89,11111222 
TABS,ioos:station:wmo:42046:1,2011-09-03T12:30:00Z,27.8903,-94.0367,1001.85,11111222 
TABS,ioos:station:wmo:42046:1,2011-09-03T13:00:00Z,27.8903,-94.0367,1001.92,11111222 
TABS,ioos:station:wmo:42046:1,2011-09-03T13:30:00Z,27.8903,-94.0367,1001.61,11111222 
TABS,ioos:station:wmo:42046:1,2011-09-03T14:00:00Z,27.8903,-94.0367,1001.5,11111222 
TABS,ioos:station:wmo:42046:1,2011-09-03T14:30:00Z,27.8903,-94.0367,1001.7,11111222 
TABS,ioos:station:wmo:42046:1,2011-09-03T15:00:00Z,27.8903,-94.0367,1001.61,11111222 
TABS,ioos:station:wmo:42046:1,2011-09-03T15:30:00Z,27.8903,-94.0367,1001.44,11111222 
TABS,ioos:station:wmo:42046:1,2011-09-03T16:00:00Z,27.8903,-94.0367,1001.74,11111222 
TABS,ioos:station:wmo:42046:1,2011-09-03T16:30:00Z,27.8903,-94.0367,1001.69,11111222 
TABS,ioos:station:wmo:42046:1,2011-09-03T17:00:00Z,27.8903,-94.0367,1001.85,11111222 
TABS,ioos:station:wmo:42046:1,2011-09-03T17:30:00Z,27.8903,-94.0367,1001.71,11111222 
TABS,ioos:station:wmo:42046:1,2011-09-03T18:00:00Z,27.8903,-94.0367,1001.42,11111222 
TABS,ioos:station:wmo:42046:1,2011-09-03T18:30:00Z,27.8903,-94.0367,1001.56,11111222 
TABS,ioos:station:wmo:42046:1,2011-09-03T19:00:00Z,27.8903,-94.0367,1000.88,11111222 
TABS,ioos:station:wmo:42046:1,2011-09-03T19:30:00Z,27.8903,-94.0367,1001.1,11111222 
TABS,ioos:station:wmo:42046:1,2011-09-03T20:00:00Z,27.8903,-94.0367,1000.43,11111222 
TABS,ioos:station:wmo:42046:1,2011-09-03T20:30:00Z,27.8903,-94.0367,1000.34,11111222 
TABS,ioos:station:wmo:42046:1,2011-09-03T21:00:00Z,27.8903,-94.0367,1000.47,11111222 
TABS,ioos:station:wmo:42046:1,2011-09-03T21:30:00Z,27.8903,-94.0367,1000.21,11111222 
TABS,ioos:station:wmo:42046:1,2011-09-03T22:00:00Z,27.8903,-94.0367,999.86,11111222 
TABS,ioos:station:wmo:42046:1,2011-09-03T22:30:00Z,27.8903,-94.0367,1000.24,11111222 
TABS,ioos:station:wmo:42046:1,2011-09-03T23:00:00Z,27.8903,-94.0367,1000.25,11111222 
TABS,ioos:station:wmo:42046:1,2011-09-03T23:30:00Z,27.8903,-94.0367,999.67,11111222 
TABS,ioos:station:wmo:42046:1,2011-09-04T00:00:00Z,27.8903,-94.0367,999.6,11111222 
TABS,ioos:station:wmo:42046:1,2011-09-04T00:30:00Z,27.8903,-94.0367,999.29,11111222 
TABS,ioos:station:wmo:42046:1,2011-09-04T01:00:00Z,27.8903,-94.0367,999.49,11111222 
TABS,ioos:station:wmo:42046:1,2011-09-04T01:30:00Z,27.8903,-94.0367,1000.17,11111222 
TABS,ioos:station:wmo:42046:1,2011-09-04T02:00:00Z,27.8903,-94.0367,1000.07,11111222 
TABS,ioos:station:wmo:42046:1,2011-09-04T02:30:00Z,27.8903,-94.0367,999.78,11111222 
TABS,ioos:station:wmo:42046:1,2011-09-04T03:00:00Z,27.8903,-94.0367,1000.88,11111222 
TABS,ioos:station:wmo:42046:1,2011-09-04T03:30:00Z,27.8903,-94.0367,1000.8,11111222 
TABS,ioos:station:wmo:42046:1,2011-09-04T04:00:00Z,27.8903,-94.0367,1000.46,11111222 
TABS,ioos:station:wmo:42046:1,2011-09-04T04:30:00Z,27.8903,-94.0367,999.89,11111222 
TABS,ioos:station:wmo:42046:1,2011-09-04T05:00:00Z,27.8903,-94.0367,999.91,11111222 
TABS,ioos:station:wmo:42046:1,2011-09-04T05:30:00Z,27.8903,-94.0367,1000.2,11111222 
TABS,ioos:station:wmo:42046:1,2011-09-04T06:00:00Z,27.8903,-94.0367,1000.2,11111222 
TABS,ioos:station:wmo:42046:1,2011-09-04T06:30:00Z,27.8903,-94.0367,999.91,11111222 
TABS,ioos:station:wmo:42046:1,2011-09-04T07:00:00Z,27.8903,-94.0367,999.86,11111222 
TABS,ioos:station:wmo:42046:1,2011-09-04T07:30:00Z,27.8903,-94.0367,999.55,11111222 
TABS,ioos:station:wmo:42046:1,2011-09-04T08:00:00Z,27.8903,-94.0367,999.02,11111222 
TABS,ioos:station:wmo:42046:1,2011-09-04T08:30:00Z,27.8903,-94.0367,999.9,11111222 
TABS,ioos:station:wmo:42046:1,2011-09-04T09:00:00Z,27.8903,-94.0367,999.68,11111222 
TABS,ioos:station:wmo:42046:1,2011-09-04T09:30:00Z,27.8903,-94.0367,1000.0,11111222 
TABS,ioos:station:wmo:42046:1,2011-09-04T10:00:00Z,27.8903,-94.0367,999.87,11111222 
TABS,ioos:station:wmo:42046:1,2011-09-04T10:30:00Z,27.8903,-94.0367,999.93,11111222 
TABS,ioos:station:wmo:42046:1,2011-09-04T11:00:00Z,27.8903,-94.0367,1000.17,11111222 
TABS,ioos:station:wmo:42046:1,2011-09-04T11:30:00Z,27.8903,-94.0367,1000.45,11111222 
TABS,ioos:station:wmo:42046:1,2011-09-04T12:00:00Z,27.8903,-94.0367,1001.18,11111222 
TABS,ioos:station:wmo:42046:1,2011-09-04T12:30:00Z,27.8903,-94.0367,1000.94,11111222 
TABS,ioos:station:wmo:42046:1,2011-09-04T13:00:00Z,27.8903,-94.0367,1000.86,11111222 
TABS,ioos:station:wmo:42046:1,2011-09-04T13:30:00Z,27.8903,-94.0367,1000.97,11111222 
TABS,ioos:station:wmo:42046:1,2011-09-04T14:00:00Z,27.8903,-94.0367,1001.19,11111222 
TABS,ioos:station:wmo:42046:1,2011-09-04T14:30:00Z,27.8903,-94.0367,1001.26,11111222 
TABS,ioos:station:wmo:42046:1,2011-09-04T15:00:00Z,27.8903,-94.0367,1001.63,11111222 
TABS,ioos:station:wmo:42046:1,2011-09-04T15:30:00Z,27.8903,-94.0367,1001.89,11111222 
TABS,ioos:station:wmo:42046:1,2011-09-04T16:00:00Z,27.8903,-94.0367,1002.2,11111222 
TABS,ioos:station:wmo:42046:1,2011-09-04T16:30:00Z,27.8903,-94.0367,1002.45,11111222 
TABS,ioos:station:wmo:42046:1,2011-09-04T17:00:00Z,27.8903,-94.0367,1002.69,11111222 
TABS,ioos:station:wmo:42046:1,2011-09-04T17:30:00Z,27.8903,-94.0367,1002.17,11111222 
TABS,ioos:station:wmo:42046:1,2011-09-04T18:00:00Z,27.8903,-94.0367,1002.45,11111222 
TABS,ioos:station:wmo:42046:1,2011-09-04T18:30:00Z,27.8903,-94.0367,1002.24,11111222 
TABS,ioos:station:wmo:42046:1,2011-09-04T19:00:00Z,27.8903,-94.0367,1002.39,11111222 
TABS,ioos:station:wmo:42046:1,2011-09-04T19:30:00Z,27.8903,-94.0367,1002.32,11111222 
TABS,ioos:station:wmo:42046:1,2011-09-04T20:00:00Z,27.8903,-94.0367,1001.96,11111222 
TABS,ioos:station:wmo:42046:1,2011-09-04T20:30:00Z,27.8903,-94.0367,1001.76,11111222 
TABS,ioos:station:wmo:42046:1,2011-09-04T21:00:00Z,27.8903,-94.0367,1001.37,11111222 
TABS,ioos:station:wmo:42046:1,2011-09-04T21:30:00Z,27.8903,-94.0367,1001.49,11111222 
TABS,ioos:station:wmo:42046:1,2011-09-04T22:00:00Z,27.8903,-94.0367,1001.52,11111222 
TABS,ioos:station:wmo:42046:1,2011-09-04T22:30:00Z,27.8903,-94.0367,1001.7,11111222 
TABS,ioos:station:wmo:42046:1,2011-09-04T23:00:00Z,27.8903,-94.0367,1001.52,11111222 
TABS,ioos:station:wmo:42046:1,2011-09-04T23:30:00Z,27.8903,-94.0367,1001.8,11111222 
TABS,ioos:station:wmo:42046:1,2011-09-05T00:00:00Z,27.8903,-94.0367,1001.88,11111222 
TABS,ioos:station:wmo:42046:1,2011-09-05T00:30:00Z,27.8903,-94.0367,1002.16,11111222 
TABS,ioos:station:wmo:42046:1,2011-09-05T01:00:00Z,27.8903,-94.0367,1002.27,11111222 
TABS,ioos:station:wmo:42046:1,2011-09-05T01:30:00Z,27.8903,-94.0367,1002.74,11111222 
TABS,ioos:station:wmo:42046:1,2011-09-05T02:00:00Z,27.8903,-94.0367,1003.03,11111222 
TABS,ioos:station:wmo:42046:1,2011-09-05T02:30:00Z,27.8903,-94.0367,1003.49,11111222 
TABS,ioos:station:wmo:42046:1,2011-09-05T03:00:00Z,27.8903,-94.0367,1004.04,11111222 
TABS,ioos:station:wmo:42046:1,2011-09-05T03:30:00Z,27.8903,-94.0367,1004.04,11111222 
TABS,ioos:station:wmo:42046:1,2011-09-05T04:00:00Z,27.8903,-94.0367,1004.6,11111222 
TABS,ioos:station:wmo:42046:1,2011-09-05T04:30:00Z,27.8903,-94.0367,1004.27,11111222 
TABS,ioos:station:wmo:42046:1,2011-09-05T05:00:00Z,27.8903,-94.0367,1004.57,11111222 
TABS,ioos:station:wmo:42046:1,2011-09-05T05:30:00Z,27.8903,-94.0367,1004.16,11111222 
TABS,ioos:station:wmo:42046:1,2011-09-05T06:00:00Z,27.8903,-94.0367,1004.53,11111222 
TABS,ioos:station:wmo:42046:1,2011-09-05T06:30:00Z,27.8903,-94.0367,1004.63,11111222 
TABS,ioos:station:wmo:42046:1,2011-09-05T07:00:00Z,27.8903,-94.0367,1004.63,11111222 
TABS,ioos:station:wmo:42046:1,2011-09-05T07:30:00Z,27.8903,-94.0367,1004.97,11111222 
TABS,ioos:station:wmo:42046:1,2011-09-05T08:00:00Z,27.8903,-94.0367,1004.91,11111222 
TABS,ioos:station:wmo:42046:1,2011-09-05T08:30:00Z,27.8903,-94.0367,1004.55,11111222 
TABS,ioos:station:wmo:42046:1,2011-09-05T09:00:00Z,27.8903,-94.0367,1005.0,11111222 
TABS,ioos:station:wmo:42046:1,2011-09-05T09:30:00Z,27.8903,-94.0367,1005.1,11111222 
TABS,ioos:station:wmo:42046:1,2011-09-05T10:00:00Z,27.8903,-94.0367,1005.28,11111222 
TABS,ioos:station:wmo:42046:1,2011-09-05T10:30:00Z,27.8903,-94.0367,1005.55,11111222 
TABS,ioos:station:wmo:42046:1,2011-09-05T11:00:00Z,27.8903,-94.0367,1006.04,11111222 
TABS,ioos:station:wmo:42046:1,2011-09-05T11:30:00Z,27.8903,-94.0367,1006.42,11111222 
TABS,ioos:station:wmo:42046:1,2011-09-05T12:00:00Z,27.8903,-94.0367,1006.65,11111222 
TABS,ioos:station:wmo:42046:1,2011-09-05T12:30:00Z,27.8903,-94.0367,1007.11,11111222 
TABS,ioos:station:wmo:42046:1,2011-09-05T13:00:00Z,27.8903,-94.0367,1007.52,11111222 
TABS,ioos:station:wmo:42046:1,2011-09-05T13:30:00Z,27.8903,-94.0367,1007.52,11111222 
TABS,ioos:station:wmo:42046:1,2011-09-05T14:00:00Z,27.8903,-94.0367,1007.73,11111222 
TABS,ioos:station:wmo:42046:1,2011-09-05T14:30:00Z,27.8903,-94.0367,1008.24,11111222 
TABS,ioos:station:wmo:42046:1,2011-09-05T15:00:00Z,27.8903,-94.0367,1008.69,11111222 
TABS,ioos:station:wmo:42046:1,2011-09-05T15:30:00Z,27.8903,-94.0367,1009.39,11111222 
TABS,ioos:station:wmo:42046:1,2011-09-05T16:00:00Z,27.8903,-94.0367,1009.31,11111222 
TABS,ioos:station:wmo:42046:1,2011-09-05T16:30:00Z,27.8903,-94.0367,1009.86,11111222 
TABS,ioos:station:wmo:42046:1,2011-09-05T17:00:00Z,27.8903,-94.0367,1009.53,11111222 
TABS,ioos:station:wmo:42046:1,2011-09-05T17:30:00Z,27.8903,-94.0367,1009.56,11111222 
TABS,ioos:station:wmo:42046:1,2011-09-05T18:00:00Z,27.8903,-94.0367,1009.59,11111222 
TABS,ioos:station:wmo:42046:1,2011-09-05T18:30:00Z,27.8903,-94.0367,1009.62,11111222 
TABS,ioos:station:wmo:42046:1,2011-09-05T19:00:00Z,27.8903,-94.0367,1009.64,11111222 
TABS,ioos:station:wmo:42046:1,2011-09-05T19:30:00Z,27.8903,-94.0367,1009.6,11111222 
TABS,ioos:station:wmo:42046:1,2011-09-05T20:00:00Z,27.8903,-94.0367,1009.41,11111222 
TABS,ioos:station:wmo:42046:1,2011-09-05T20:30:00Z,27.8903,-94.0367,1009.42,11111222 
TABS,ioos:station:wmo:42046:1,2011-09-05T21:00:00Z,27.8903,-94.0367,1009.39,11111222 
TABS,ioos:station:wmo:42046:1,2011-09-05T21:30:00Z,27.8903,-94.0367,1009.24,11111222 
TABS,ioos:station:wmo:42046:1,2011-09-05T22:00:00Z,27.8903,-94.0367,1009.28,11111222 
TABS,ioos:station:wmo:42046:1,2011-09-05T22:30:00Z,27.8903,-94.0367,1009.67,11111222 
TABS,ioos:station:wmo:42046:1,2011-09-05T23:00:00Z,27.8903,-94.0367,1009.76,11111222 
TABS,ioos:station:wmo:42046:1,2011-09-05T23:30:00Z,27.8903,-94.0367,1010.08,11111222 
TABS,ioos:station:wmo:42046:1,2011-09-06T00:00:00Z,27.8903,-94.0367,1010.26,11111222 
TABS,ioos:station:wmo:42046:1,2011-09-06T00:30:00Z,27.8903,-94.0367,1010.29,11111222 
TABS,ioos:station:wmo:42046:1,2011-09-06T01:00:00Z,27.8903,-94.0367,1010.19,11111222 
TABS,ioos:station:wmo:42046:1,2011-09-06T01:30:00Z,27.8903,-94.0367,1010.48,11111222 
TABS,ioos:station:wmo:42046:1,2011-09-06T02:00:00Z,27.8903,-94.0367,1010.97,11111222 
TABS,ioos:station:wmo:42046:1,2011-09-06T02:30:00Z,27.8903,-94.0367,1011.29,11111222 
TABS,ioos:station:wmo:42046:1,2011-09-06T03:00:00Z,27.8903,-94.0367,1011.61,11111222 
TABS,ioos:station:wmo:42046:1,2011-09-06T03:30:00Z,27.8903,-94.0367,1011.57,11111222 
TABS,ioos:station:wmo:42046:1,2011-09-06T04:00:00Z,27.8903,-94.0367,1011.79,11111222 
TABS,ioos:station:wmo:42046:1,2011-09-06T04:30:00Z,27.8903,-94.0367,1011.92,11111222 
TABS,ioos:station:wmo:42046:1,2011-09-06T05:00:00Z,27.8903,-94.0367,1012.14,11111222 
TABS,ioos:station:wmo:42046:1,2011-09-06T05:30:00Z,27.8903,-94.0367,1012.27,11111222 
TABS,ioos:station:wmo:42046:1,2011-09-06T06:00:00Z,27.8903,-94.0367,1012.22,11111222 
TABS,ioos:station:wmo:42046:1,2011-09-06T06:30:00Z,27.8903,-94.0367,1012.32,11111222 
TABS,ioos:station:wmo:42046:1,2011-09-06T07:00:00Z,27.8903,-94.0367,1012.34,11111222 
TABS,ioos:station:wmo:42046:1,2011-09-06T07:30:00Z,27.8903,-94.0367,1012.36,11111222 
TABS,ioos:station:wmo:42046:1,2011-09-06T08:00:00Z,27.8903,-94.0367,1012.48,11111222 
TABS,ioos:station:wmo:42046:1,2011-09-06T08:30:00Z,27.8903,-94.0367,1012.64,11111222 
TABS,ioos:station:wmo:42046:1,2011-09-06T09:00:00Z,27.8903,-94.0367,1012.88,11111222 
TABS,ioos:station:wmo:42046:1,2011-09-06T09:30:00Z,27.8903,-94.0367,1013.12,11111222 
TABS,ioos:station:wmo:42046:1,2011-09-06T10:00:00Z,27.8903,-94.0367,1013.16,11111222 
TABS,ioos:station:wmo:42046:1,2011-09-06T10:30:00Z,27.8903,-94.0367,1013.48,11111222 
TABS,ioos:station:wmo:42046:1,2011-09-06T11:00:00Z,27.8903,-94.0367,1013.6,11111222 
TABS,ioos:station:wmo:42046:1,2011-09-06T11:30:00Z,27.8903,-94.0367,1013.98,11111222 
TABS,ioos:station:wmo:42046:1,2011-09-06T12:00:00Z,27.8903,-94.0367,1014.12,11111222 
TABS,ioos:station:wmo:42046:1,2011-09-06T12:30:00Z,27.8903,-94.0367,1014.73,11111222 
TABS,ioos:station:wmo:42046:1,2011-09-06T13:00:00Z,27.8903,-94.0367,1015.14,11111222 
TABS,ioos:station:wmo:42046:1,2011-09-06T13:30:00Z,27.8903,-94.0367,1015.21,11111222 
TABS,ioos:station:wmo:42046:1,2011-09-06T14:00:00Z,27.8903,-94.0367,1015.34,11111222 
TABS,ioos:station:wmo:42046:1,2011-09-06T14:30:00Z,27.8903,-94.0367,1015.65,11111222 
TABS,ioos:station:wmo:42046:1,2011-09-06T15:00:00Z,27.8903,-94.0367,1015.99,11111222 
TABS,ioos:station:wmo:42046:1,2011-09-06T15:30:00Z,27.8903,-94.0367,1016.01,11111222 
TABS,ioos:station:wmo:42046:1,2011-09-06T16:00:00Z,27.8903,-94.0367,1016.21,11111222 
TABS,ioos:station:wmo:42046:1,2011-09-06T16:30:00Z,27.8903,-94.0367,1016.3,11111222 
TABS,ioos:station:wmo:42046:1,2011-09-06T17:00:00Z,27.8903,-94.0367,1016.23,11111222 
TABS,ioos:station:wmo:42046:1,2011-09-06T17:30:00Z,27.8903,-94.0367,1016.19,11111222 
TABS,ioos:station:wmo:42046:1,2011-09-06T18:00:00Z,27.8903,-94.0367,1015.91,11111222 
TABS,ioos:station:wmo:42046:1,2011-09-06T18:30:00Z,27.8903,-94.0367,1015.91,11111222 